Weather History for KTQE - July, 2013

Change the Weather History Date:

Wednesday, July 10, 2013

  Actual Average Record
Temperature  
Mean Temperature 75 °F -  
Max Temperature 84 °F 89 °F 102 °F (1966)
Min Temperature 64 °F 66 °F 46 °F (1996)
Cooling Degree Days 10    
Growing Degree Days 25 (Base 50)    
Moisture  
Dew Point 63 °F    
Average Humidity 73    
Maximum Humidity 94    
Minimum Humidity 41    
Precipitation  
Precipitation 0.00 in - - ()
Sea Level Pressure  
Sea Level Pressure 30.03 in    
Wind  
Wind Speed 5 mph (North)    
Max Wind Speed 13 mph    
Max Gust Speed 17 mph    
Visibility 7 miles    
Events      
Averages and records for this station are not official NWS values.
T = Trace of Precipitation, MM = Missing Value Source: NWS Daily Summary

Daily Weather History Graph

Daily Weather History Graph

Search for Another Location

Airport or City:

Trip Planner

Search our weather history database for the weather conditions in past years. The results will help you decide how hot, cold, wet, or windy it might be!

Date:

Astronomy

Jul. 10, 2013 Rise Set
Actual Time 5:59 AM CDT 9:00 PM CDT
Civil Twilight 5:26 AM CDT 9:33 PM CDT
Nautical Twilight 4:43 AM CDT 10:16 PM CDT
Astronomical Twilight 3:53 AM CDT 11:06 PM CDT
Moon 8:24 AM CDT (7/10) 10:07 PM CDT (7/10)
Length of Visible Light 16h 07m
Length of Day
15h 00m
Waxing Crescent, 5% of the Moon is Illuminated
Jul 10
Waxing Crescent
Jul 15
First Quarter
Jul 22
Full
Jul 29
Last Quarter
Aug 6
New

Hourly Weather History & Observations

Time (CDT) Temp. Heat Index Dew Point Humidity Pressure Visibility Wind Dir Wind Speed Gust Speed Precip Events Conditions
12:54 AM 73.0 °F - 69.1 °F 87% 29.94 in 10.0 mi North 8.1 mph - N/A   Clear
1:54 AM 72.0 °F - 68.0 °F 87% 29.96 in 10.0 mi North 4.6 mph - N/A   Clear
2:54 AM 69.1 °F - 66.0 °F 90% 29.99 in 7.0 mi Calm Calm - N/A   Clear
3:54 AM 66.9 °F - 64.9 °F 93% 29.99 in 6.0 mi Calm Calm - N/A   Clear
4:54 AM 66.0 °F - 64.0 °F 93% 30.01 in 4.0 mi Calm Calm - N/A   Clear
5:17 AM 66.2 °F - 64.4 °F 94% 30.06 in 2.0 mi Calm Calm - N/A   Clear
5:40 AM 66.2 °F - 64.4 °F 94% 30.06 in 4.0 mi North 3.5 mph - N/A   Clear
5:54 AM 66.9 °F - 64.9 °F 93% 30.03 in 5.0 mi North 3.5 mph - N/A   Clear
6:19 AM 66.2 °F - 64.4 °F 94% 30.07 in 2.0 mi NNW 6.9 mph - N/A   Clear
6:54 AM 68.0 °F - 66.0 °F 93% 30.04 in 2.5 mi North 8.1 mph - N/A   Clear
7:40 AM 69.8 °F - 66.2 °F 88% 30.08 in 3.0 mi North 8.1 mph - N/A   Clear
7:54 AM 71.1 °F - 66.0 °F 84% 30.05 in 5.0 mi North 9.2 mph - N/A   Haze
8:54 AM 73.0 °F - 63.0 °F 71% 30.05 in 9.0 mi North 11.5 mph - N/A   Clear
9:54 AM 75.9 °F - 64.0 °F 67% 30.05 in 10.0 mi North 10.4 mph - N/A   Clear
10:54 AM 77.0 °F - 63.0 °F 62% 30.06 in 9.0 mi NNE 12.7 mph - N/A   Clear
11:54 AM 79.0 °F - 63.0 °F 58% 30.06 in 10.0 mi NNE 8.1 mph - N/A   Clear
12:54 PM 81.0 °F 81.7 °F 61.0 °F 50% 30.07 in 9.0 mi NNW 9.2 mph 17.3 mph N/A   Clear
1:54 PM 82.0 °F 82.7 °F 61.0 °F 49% 30.07 in 10.0 mi North 10.4 mph 16.1 mph N/A   Clear
2:54 PM 82.9 °F 83.2 °F 60.1 °F 46% 30.06 in 8.0 mi NNE 10.4 mph - N/A   Clear
3:54 PM 84.0 °F 84.0 °F 60.1 °F 44% 30.04 in 9.0 mi NNW 6.9 mph - N/A   Clear
4:54 PM 84.9 °F 84.4 °F 59.0 °F 41% 30.03 in 9.0 mi North 4.6 mph - N/A   Clear
5:54 PM 84.0 °F 83.5 °F 57.9 °F 41% 30.01 in 9.0 mi Calm Calm - N/A   Clear
6:54 PM 82.0 °F 82.1 °F 59.0 °F 45% 29.99 in 9.0 mi Calm Calm - N/A   Clear
7:54 PM 82.0 °F 82.7 °F 61.0 °F 49% 29.98 in 9.0 mi Calm Calm - N/A   Clear
8:54 PM 73.0 °F - 66.9 °F 81% 30.00 in 7.0 mi West 3.5 mph - N/A   Clear
9:54 PM 73.0 °F - 63.0 °F 71% 30.01 in 8.0 mi NNE 4.6 mph - N/A   Clear
10:54 PM 66.9 °F - 64.0 °F 90% 30.04 in 7.0 mi West 3.5 mph - N/A   Clear
11:54 PM 64.9 °F - 62.1 °F 90% 30.04 in 7.0 mi Calm Calm - N/A   Clear